Regional Weather Roundup
Issued by NWS

Home | Current Version | Previous Version | Graphics & Text | Print | Product List | Glossary On
Versions: 1 2 3 4 5 6 7 8 9 10 11 12 13 14 15 16 17 18 19 20 21 22 23 24 25 26 27 28 29 30 31 32 33 34 35 36 37 38 39 40 41 42 43 44 45 46 47 48 49 50
000
ASUS43 KDTX 011810
RWRMI
MICHIGAN HOURLY REGIONAL WEATHER ROUNDUP
NATIONAL WEATHER SERVICE DETROIT/PONTIAC MI
200 PM EDT FRI AUG 01 2014

NOTE: "FAIR" INDICATES FEW OR NO CLOUDS BELOW 12,000 FEET WITH NO
SIGNIFICANT WEATHER AND/OR OBSTRUCTION TO VISIBILITY.

MIZ047>049-052>055-059>063-066>070-074>076-081>083-011900-
SOUTHEAST LOWER MICHIGAN

CITY           SKY/WX    TMP DP  RH WIND       PRES   REMARKS
ADRIAN         PTSUNNY   78  60  53 NW9       30.11S
6HR MIN TEMP:  62; 6HR MAX TEMP:  82;

ALMA           PTSUNNY   79  59  49 W6        30.09S
ANN ARBOR      MOSUNNY   81  57  43 SW5       30.10F
BAD AXE        PTSUNNY   78  65  63 W7        30.09S
6HR MIN TEMP:  61; 6HR MAX TEMP:  78;

DETROIT CITY   MOSUNNY   83  58  42 W7        30.08F
6HR MIN TEMP:  66; 6HR MAX TEMP:  84;

DETROIT        PTSUNNY   79  59  50 SW8       30.10S
6HR MIN TEMP:  65; 6HR MAX TEMP:  83;

FLINT          PTSUNNY   81  61  50 W8        30.09F
6HR MIN TEMP:  65; 6HR MAX TEMP:  82;

GROSSE ILE     SUNNY     75  66  73 SE5       30.09F
HILLSDALE      MOSUNNY   79  59  49 W5        30.12S
6HR MIN TEMP:  65; 6HR MAX TEMP:  80;

HOWELL         MOSUNNY   80  55  41 W7        30.10F
6HR MIN TEMP:  62; 6HR MAX TEMP:  81;


CITY           SKY/WX    TMP DP  RH WIND       PRES   REMARKS
JACKSON        MOSUNNY   82  57  42 VRB6      30.11S
6HR MIN TEMP:  63; 6HR MAX TEMP:  82;

LAMBERTVILLE   MOSUNNY   82  61  47 SW7       30.10F
LANSING        SUNNY     79  59  50 W8        30.09F
6HR MIN TEMP:  64; 6HR MAX TEMP:  80;

LAPEER         NOT AVBL
MASON          MOSUNNY   80  57  44 SW5       30.09F
MONROE         MOSUNNY   81  61  50 W3        30.08F
MT. CLEMENS    PTSUNNY   76  63  63 SE9       30.08S
6HR MIN TEMP:  64; 6HR MAX TEMP:  80;

PONTIAC        PTSUNNY   79  56  45 W12       30.10S
6HR MIN TEMP:  62; 6HR MAX TEMP:  80;

PORT HOPE        N/A     72  64  76 N5        30.08S
6HR MIN TEMP:  63; 6HR MAX TEMP:  75;

PORT HURON     MOSUNNY   81  64  57 SW3       30.09F
TRI CITIES     PTSUNNY   80  63  55 W6        30.08F
6HR MIN TEMP:  64; 6HR MAX TEMP:  81;

YPSILANTI      MOSUNNY   83  59  44 SW9       30.10F
6HR MIN TEMP:  67; 6HR MAX TEMP:  85;

$$
MIZ043>046-050>051-056>058-064>065-071>073-077>080-011900-
SOUTHWEST LOWER MICHIGAN

CITY           SKY/WX    TMP DP  RH WIND       PRES   REMARKS
BATTLE CREEK   MOSUNNY   78  60  53 W6        30.11S
6HR MIN TEMP:  63; 6HR MAX TEMP:  81;

BENTON HARBOR  MOSUNNY   79  58  48 W7        30.10F
6HR MIN TEMP:  61; 6HR MAX TEMP:  79;

BIG RAPIDS     MOSUNNY   79  58  47 W3        30.07F
6HR MIN TEMP:  57; 6HR MAX TEMP:  80;

COLDWATER      MOSUNNY   81  57  43 W5        30.11F
6HR MIN TEMP:  65; 6HR MAX TEMP:  83;

HOLLAND        SUNNY     80  63  55 W6        30.10F
6HR MIN TEMP:  65; 6HR MAX TEMP:  81;

GRAND RAPIDS   MOSUNNY   83  59  44 W9        30.09F
6HR MIN TEMP:  65; 6HR MAX TEMP:  84;

KALAMAZOO      PTSUNNY   82  57  42 SW8       30.10F
6HR MIN TEMP:  63; 6HR MAX TEMP:  83;

MARSHALL       SUNNY     81  57  44 SW9       30.10F
MUSKEGON       MOSUNNY   75  61  61 SW9       30.09S
6HR MIN TEMP:  63; 6HR MAX TEMP:  78;

$$
MIZ016>042-011900-
NORTHERN LOWER MICHIGAN

CITY           SKY/WX    TMP DP  RH WIND       PRES   REMARKS
ALPENA         SUNNY     77  53  43 W5        30.07F
6HR MIN TEMP:  58; 6HR MAX TEMP:  79;

BEAVER ISLAND  MOSUNNY   74  59  59 NW3       30.08S
6HR MIN TEMP:  55; 6HR MAX TEMP:  75;

BELLAIRE       SUNNY     79  47  32 N5        30.06S
6HR MIN TEMP:  55; 6HR MAX TEMP:  80;

CADILLAC       CLOUDY    78  56  45 SW7       30.08S
CHARLEVOIX     MOSUNNY   74  53  47 NW7       30.10S
6HR MIN TEMP:  58; 6HR MAX TEMP:  75;

FRANKFORT      CLEAR     75  60  59 W6        30.07S
GAYLORD        SUNNY     76  47  35 VRB5      30.09S
6HR MIN TEMP:  57; 6HR MAX TEMP:  77;

GRAYLING       PTSUNNY   77  49  37 CALM      30.09F
6HR MIN TEMP:  54; 6HR MAX TEMP:  79;

HARBOR SPRINGS SUNNY     71  61  70 SW5       30.08S
HOUGHTON LAKE  SUNNY     77  53  43 SW7       30.09S
6HR MIN TEMP:  53; 6HR MAX TEMP:  78;

MANISTEE       SUNNY     77  57  50 W8        30.07S
OSCODA         PTSUNNY   75  61  61 E8        30.07S
PELLSTON       SUNNY     78  49  35 VRB3      30.07S
6HR MIN TEMP:  53; 6HR MAX TEMP:  80;

TRAVERSE CITY  PTSUNNY   79  49  34 NE9       30.05F
6HR MIN TEMP:  60; 6HR MAX TEMP:  80;

$$
MIZ007>008-015-011900-
EASTERN UPPER MICHIGAN

CITY           SKY/WX    TMP DP  RH WIND       PRES   REMARKS
KINROSS        SUNNY     72  54  53 NW8       30.08S
6HR MIN TEMP:  55; 6HR MAX TEMP:  72;

MACKINAC ISLAN SUNNY     71  51  48 S6        30.08S
6HR MIN TEMP:  57; 6HR MAX TEMP:  72;

NEWBERRY       SUNNY     72  55  55 N7        30.07S
S. S. MARIE    SUNNY     74  53  48 VRB6      30.07S
6HR MIN TEMP:  56; 6HR MAX TEMP:  74;

$$
MIZ004>006-011>014-085-011900-
CENTRAL UPPER MICHIGAN

CITY           SKY/WX    TMP DP  RH WIND       PRES   REMARKS
MANISTIQUE     PTSUNNY   73  54  51 S6        30.07S
ESCANABA       SUNNY     72  52  49 SE7       30.06S
6HR MIN TEMP:  54; 6HR MAX TEMP:  72;

MENOMINEE      SUNNY     73  61  64 E8        30.04S
6HR MIN TEMP:  55; 6HR MAX TEMP:  73;

SAWYER-GWINN   SUNNY     70  54  56 NE9       30.09R
$$
MIZ001>003-009>011-084-011900-
WESTERN UPPER MICHIGAN

CITY           SKY/WX    TMP DP  RH WIND       PRES   REMARKS
IRON MOUNTAIN  SUNNY     78  48  34 VRB5      30.05S
6HR MIN TEMP:  54; 6HR MAX TEMP:  79;

HOUGHTON       SUNNY     69  52  54 E8        30.08S
6HR MIN TEMP:  55; 6HR MAX TEMP:  70;

COPPER HARBOR    N/A     65  54  67 E6        30.08F
6HR MIN TEMP:  57; 6HR MAX TEMP:  65;

$$

ABBREVIATIONS USED IN REMARKS
   TC - TEMPERATURE IN CELSIUS
  WCI - WIND CHILL INDEX
   HX - HEAT INDEX
  VSB - VISIBILITY




USA.gov is the U.S. government's official web portal to all federal, state and local government web resources and services.